Flag for China Weather past 2 weeks in Changsha, Hunan, China

Now
68 °F

Mostly cloudy.


Feels Like: 68 °F
Forecast: 64 / 67 °F
Wind: 8 mph from North

Location: Changsha

Current Time: Sep 18, 2014 at 12:11:38 PM

Latest Report: Sep 18, 2014 at 11:00 AM


Visibility: 4 mi

Pressure: 30.04 "Hg

Humidity: 83%

Dew point: 63 °F

Location of ChangshaLocation

Historic Weather in Changsha — Graph

°F

Changsha temperature yesterday

Maximum temperature yesterday: 82 °F (at 12:00 PM)
Minimum temperature yesterday: 72 °F (at 3:00 AM)
Average temperature yesterday: 75 °F

Past Weeks' High & Low Weather Summary

 TemperatureHumidityPressure
High99 °F (Sep 8, 2:00 PM)94% (Sep 4, 12:00 AM)30.04 "Hg (Sep 4, 12:00 AM)
Low64 °F (Sep 5, 8:00 AM)31% (Sep 4, 1:00 PM)29.62 "Hg (Sep 8, 5:00 PM)
Average79 °F77%29.79 "Hg
* Reported Sep 3 10:00 AM — Sep 18 10:00 AM, Changsha, Weather by CustomWeather, © 2014

Note: Actual official high and low records may vary slightly from our data, if they occured in-between our weather recording intervals... More about our weather records

Advertising

Changsha weather history for previous 24 hours

 ConditionsComfort  
Time TempWeatherWind HumidityBarometerVisibility
10:00 AM
Sep 18
66 °FDrizzle. Fog.8 mph88%30.04 "Hg2 mi
9:00 AM66 °FDrizzle. Fog.10 mph88%30.04 "Hg3 mi
8:00 AM66 °FFog.10 mph88%30.01 "Hg3 mi
7:00 AM66 °FMostly cloudy.8 mph88%30.01 "Hg4 mi
6:00 AM68 °FMostly cloudy.6 mph88%30.01 "Hg5 mi
5:00 AM68 °FMostly cloudy.6 mph88%29.98 "Hg5 mi
4:00 AM68 °FOvercast.8 mph88%29.98 "Hg4 mi
3:00 AM68 °FMostly cloudy.8 mph94%29.98 "Hg4 mi
2:00 AM68 °FLight rain. Fog.8 mph94%29.98 "Hg3 mi
1:00 AM70 °FLight rain. Fog.6 mph88%29.98 "Hg2 mi
12:00 AM70 °FLight rain. Fog.8 mph88%30.01 "Hg2 mi
11:00 PM
Sep 17
72 °FLight rain. Fog.8 mph83%30.01 "Hg2 mi
10:00 PM72 °FFog.8 mph83%30.01 "Hg2 mi
9:00 PM72 °FFog.10 mph88%29.98 "Hg2 mi
8:00 PM73 °FFog.10 mph83%29.95 "Hg2 mi
7:00 PM73 °FLight rain. Fog.6 mph89%29.92 "Hg2 mi
6:00 PM73 °FDrizzle. Fog.10 mph83%29.92 "Hg1 mi
5:00 PM77 °FFog.10 mph79%29.89 "Hg2 mi
4:00 PM77 °FFog.10 mph79%29.89 "Hg2 mi
3:00 PM79 °FFog.10 mph70%29.86 "Hg3 mi
2:00 PM82 °FHaze.10 mph66%29.89 "Hg3 mi
1:00 PM82 °FHaze.8 mph66%29.89 "Hg3 mi
12:00 PM82 °FScattered clouds.8 mph66%29.92 "Hg3 mi
Weather by CustomWeather, © 2014

See weather overviewHow to use our weather pages